Location: Unspecified
(41.5000°N, 0.0000°E)
Time: 17:30:42
(UTC+00:00)

deb Explorer IX - Pass Details

Date: 27 June 2019
Orbit: 539 x 1112 km, 38.8° (Epoch: 17 July)

Event Time Altitude Azimuth Distance (km) Brightness Sun altitude
Rises 13:14:34 0° 258° (WSW) 3,656 ? 66.5°
Reaches altitude 10° 13:17:07 10° 256° (WSW) 2,778 ? 66.1°
Maximum altitude 13:23:57 71° 174° (S) 1,138 ? 65.2°
Drops below altitude 10° 13:31:18 10° 92° (E) 2,973 ? 64.1°
Sets 13:34:06 0° 91° (E) 3,927 ? 63.7°
